Location: Cabrera Baja
(40.4089°N, 4.3354°W)
Time: 03:23:09
(UTC+00:00)

Cosmos 2173 Rocket - Pass Details

Date: 14 July 2020
Orbit: 944 x 1001 km, 83.0° (Epoch: 03 August)

Event Time Altitude Azimuth Distance (km) Brightness Sun altitude
Exits shadow 01:43:02 57° 185° (S) 1,159 4.0 -25.2°
Maximum altitude 01:44:28 90° 105° (ESE) 1,001 3.9 -25.1°
Drops below altitude 10° 01:50:49 10° 7° (N) 2,753 7.3 -24.7°
Sets 01:53:20 0° 8° (N) 3,697 8.3 -24.5°
